Location: Peterborough
(44.3091°N, 78.3197°W)
Time: 06:10:05
(UTC-04:00)

Vanguard 2 - Pass Details

Date: 26 March 2023
Orbit: 552 x 2926 km, 32.9° (Epoch: 04 June)

Event Time Altitude Azimuth Distance (km) Brightness Sun altitude
Rises 06:54:42 0° 236° (SW) 6,753 11.8 -2.8°
Reaches altitude 10° 06:59:31 10° 231° (SW) 5,744 11.5 -2.0°
Maximum altitude 07:15:31 46° 166° (SSE) 3,178 10.8 0.9°
Drops below altitude 10° 07:27:27 10° 99° (E) 4,365 13.6 3.0°
Sets 07:30:32 0° 93° (E) 5,071 14.9 3.6°
